TimeMDT,TemperatureF,Dew PointF,Humidity,Sea Level PressureIn,VisibilityMPH,Wind Direction,Wind SpeedMPH,Gust SpeedMPH,PrecipitationIn,Events,Conditions,WindDirDegrees,DateUTC
12:15 AM,26.6,12.2,55,29.75,10.0,SE,5.8,-,N/A,,Clear,130,2011-11-04 06:15:00
12:35 AM,26.6,12.2,55,29.74,10.0,SE,5.8,-,N/A,,Clear,140,2011-11-04 06:35:00
12:55 AM,26.6,12.2,55,29.74,10.0,Calm,Calm,-,N/A,,Clear,0,2011-11-04 06:55:00
1:15 AM,24.8,10.4,54,29.74,10.0,Calm,Calm,-,N/A,,Clear,0,2011-11-04 07:15:00
1:35 AM,26.6,12.2,55,29.73,10.0,Calm,Calm,-,N/A,,Clear,0,2011-11-04 07:35:00
1:55 AM,24.8,10.4,54,29.72,10.0,Calm,Calm,-,N/A,,Clear,0,2011-11-04 07:55:00
2:15 AM,26.6,12.2,55,29.71,10.0,Calm,Calm,-,N/A,,Clear,0,2011-11-04 08:15:00
2:35 AM,23.0,10.4,59,29.71,10.0,Calm,Calm,-,N/A,,Clear,0,2011-11-04 08:35:00
2:55 AM,26.6,12.2,55,29.70,10.0,ESE,6.9,-,N/A,,Clear,110,2011-11-04 08:55:00
3:15 AM,28.4,12.2,51,29.70,10.0,ESE,10.4,-,N/A,,Clear,120,2011-11-04 09:15:00
3:35 AM,30.2,14.0,51,29.69,10.0,SSE,9.2,-,N/A,,Clear,150,2011-11-04 09:35:00
3:55 AM,26.6,12.2,55,29.69,10.0,Calm,Calm,-,N/A,,Clear,0,2011-11-04 09:55:00
4:15 AM,24.8,12.2,59,29.69,10.0,Calm,Calm,-,N/A,,Clear,0,2011-11-04 10:15:00
4:35 AM,26.6,12.2,55,29.69,10.0,Calm,Calm,-,N/A,,Clear,0,2011-11-04 10:35:00
5:15 AM,26.6,12.2,55,29.68,10.0,Calm,Calm,-,N/A,,Clear,0,2011-11-04 11:15:00
5:55 AM,24.8,10.4,54,29.67,10.0,Calm,Calm,-,N/A,,Clear,0,2011-11-04 11:55:00
6:15 AM,21.2,10.4,63,29.67,10.0,SE,4.6,-,N/A,,Clear,130,2011-11-04 12:15:00
6:35 AM,26.6,10.4,51,29.67,10.0,Calm,Calm,-,N/A,,Clear,0,2011-11-04 12:35:00
6:55 AM,24.8,10.4,54,29.66,10.0,ESE,3.5,-,N/A,,Clear,120,2011-11-04 12:55:00
7:15 AM,26.6,12.2,55,29.66,10.0,ESE,4.6,-,N/A,,Clear,110,2011-11-04 13:15:00
7:35 AM,26.6,12.2,55,29.65,10.0,East,6.9,-,N/A,,Clear,90,2011-11-04 13:35:00
7:55 AM,26.6,12.2,55,29.65,10.0,East,6.9,-,N/A,,Clear,90,2011-11-04 13:55:00
8:15 AM,21.2,10.4,63,29.66,10.0,Calm,Calm,-,N/A,,Clear,0,2011-11-04 14:15:00
8:35 AM,21.2,10.4,63,29.66,10.0,Calm,Calm,-,N/A,,Clear,0,2011-11-04 14:35:00
8:55 AM,24.8,12.2,59,29.66,10.0,Calm,Calm,-,N/A,,Clear,0,2011-11-04 14:55:00
9:35 AM,28.4,14.0,55,29.65,10.0,Calm,Calm,-,N/A,,Clear,0,2011-11-04 15:35:00
9:55 AM,32.0,15.8,51,29.65,10.0,Calm,Calm,-,N/A,,Clear,0,2011-11-04 15:55:00
10:35 AM,37.4,17.6,45,29.64,10.0,Calm,Calm,-,N/A,,Clear,0,2011-11-04 16:35:00
10:55 AM,37.4,17.6,45,29.64,10.0,Calm,Calm,-,N/A,,Clear,0,2011-11-04 16:55:00
11:15 AM,39.2,17.6,42,29.63,10.0,Calm,Calm,-,N/A,,Clear,0,2011-11-04 17:15:00
11:35 AM,41.0,17.6,39,29.62,10.0,Calm,Calm,-,N/A,,Clear,0,2011-11-04 17:35:00
11:55 AM,42.8,17.6,36,29.62,10.0,ENE,3.5,-,N/A,,Clear,60,2011-11-04 17:55:00
12:15 PM,44.6,15.8,31,29.62,10.0,East,6.9,-,N/A,,Clear,80,2011-11-04 18:15:00
12:35 PM,44.6,17.6,34,29.60,10.0,NE,5.8,-,N/A,,Clear,40,2011-11-04 18:35:00
12:55 PM,46.4,17.6,32,29.59,10.0,NNE,8.1,-,N/A,,Clear,30,2011-11-04 18:55:00
1:35 PM,48.2,17.6,30,29.57,10.0,ENE,4.6,-,N/A,,Clear,60,2011-11-04 19:35:00
1:55 PM,48.2,17.6,30,29.56,10.0,Calm,Calm,-,N/A,,Clear,0,2011-11-04 19:55:00
2:15 PM,50.0,17.6,28,29.55,10.0,North,3.5,-,N/A,,Clear,350,2011-11-04 20:15:00
2:35 PM,51.8,19.4,28,29.54,10.0,Calm,Calm,-,N/A,,Clear,0,2011-11-04 20:35:00
2:55 PM,53.6,21.2,28,29.53,10.0,ENE,8.1,-,N/A,,Clear,60,2011-11-04 20:55:00
3:35 PM,53.6,21.2,28,29.51,10.0,NNE,8.1,-,N/A,,Clear,30,2011-11-04 21:35:00
4:15 PM,-9999,-9999,N/A,29.50,10.0,NNW,9.2,-,N/A,,Clear,340,2011-11-04 22:15:00
5:35 PM,-9999,-9999,N/A,29.48,10.0,North,5.8,-,N/A,,Scattered Clouds,360,2011-11-04 23:35:00
5:55 PM,-9999,-9999,N/A,29.49,10.0,Calm,Calm,-,N/A,,Partly Cloudy,0,2011-11-04 23:55:00
6:16 PM,44.6,19.4,37,29.50,10.0,Calm,Calm,-,N/A,,Scattered Clouds,0,2011-11-05 00:16:00
6:35 PM,-9999,-9999,N/A,29.50,10.0,SE,3.5,-,N/A,,Partly Cloudy,140,2011-11-05 00:35:00
6:55 PM,39.2,19.4,45,29.51,10.0,South,6.9,-,N/A,,Clear,170,2011-11-05 00:55:00
7:15 PM,37.4,17.6,45,29.51,10.0,ESE,6.9,-,N/A,,Clear,120,2011-11-05 01:15:00
7:35 PM,37.4,17.6,45,29.50,10.0,ESE,5.8,-,N/A,,Clear,120,2011-11-05 01:35:00
7:55 PM,35.6,17.6,48,29.50,10.0,Calm,Calm,-,N/A,,Clear,0,2011-11-05 01:55:00
8:15 PM,33.8,17.6,52,29.51,10.0,South,4.6,-,N/A,,Clear,190,2011-11-05 02:15:00
8:55 PM,35.6,17.6,48,29.50,10.0,ESE,6.9,-,N/A,,Clear,110,2011-11-05 02:55:00
9:15 PM,33.8,17.6,52,29.51,10.0,Calm,Calm,-,N/A,,Clear,0,2011-11-05 03:15:00
9:35 PM,35.6,19.4,52,29.51,10.0,South,8.1,-,N/A,,Clear,180,2011-11-05 03:35:00
9:55 PM,37.4,21.2,52,29.51,10.0,South,6.9,-,N/A,,Clear,180,2011-11-05 03:55:00
10:15 PM,35.6,19.4,52,29.51,10.0,ESE,3.5,-,N/A,,Clear,120,2011-11-05 04:15:00
10:55 PM,33.8,19.4,56,29.50,10.0,Calm,Calm,-,N/A,,Clear,0,2011-11-05 04:55:00
11:15 PM,33.8,17.6,52,29.50,10.0,West,3.5,-,N/A,,Clear,280,2011-11-05 05:15:00
11:35 PM,32.0,17.6,55,29.51,10.0,Calm,Calm,-,N/A,,Clear,0,2011-11-05 05:35:00